Weather History for KW22 - March, 2012

Change the Weather History Date:

Saturday, March 24, 2012

  Actual Average (KEKN) Record (KEKN)
Temperature  
Mean Temperature 58 °F 42 °F  
Max Temperature 64 °F 55 °F 80 °F (1910)
Min Temperature 51 °F 30 °F 11 °F (1940)
Degree Days  
Heating Degree Days 8 23  
Month to date heating degree days 632  
Since 1 July heating degree days 4953  
Cooling Degree Days 0 0  
Month to date cooling degree days 0  
Year to date cooling degree days 0  
Growing Degree Days 8 (Base 50)    
Moisture  
Dew Point 56 °F    
Average Humidity 89    
Maximum Humidity 100    
Minimum Humidity 64    
Precipitation  
Precipitation 0.18 in 0.13 in 1.06 in (1936)
Month to date precipitation 3.02  
Year to date precipitation 9.35  
Snow  
Snow 0.00 in - - ()
Month to date snowfall  
Since 1 September snowfall  
Snow Depth -    
Sea Level Pressure  
Sea Level Pressure 29.90 in    
Wind  
Wind Speed 3 mph (SSE)    
Max Wind Speed 21 mph    
Max Gust Speed 28 mph    
Visibility 9 miles    
Events Rain    
T = Trace of Precipitation, MM = Missing Value Source: NWS Daily Summary

Daily Weather History Graph

Daily Weather History Graph

Search for Another Location

Airport or City:

Trip Planner

Search our weather history database for the weather conditions in past years. The results will help you decide how hot, cold, wet, or windy it might be!

Date:

Astronomy

Mar. 24, 2012 Rise Set
Actual Time 7:17 AM EDT 7:37 PM EDT
Civil Twilight 6:50 AM EDT 8:04 PM EDT
Nautical Twilight 6:19 AM EDT 8:35 PM EDT
Astronomical Twilight 5:47 AM EDT 9:07 PM EDT
Moon 7:57 AM EDT (3/24) 9:53 PM EDT (3/24)
Length of Visible Light 13h 13m
Length of Day
12h 19m
Waxing Crescent, 4% of the Moon is Illuminated
Mar 24
Waxing Crescent
Mar 30
First Quarter
Apr 6
Full
Apr 13
Last Quarter
Apr 21
New

Hourly Weather History & Observations

Time (EDT) Temp. Dew Point Humidity Pressure Visibility Wind Dir Wind Speed Gust Speed Precip Events Conditions
12:15 AM 62.6 °F 60.8 °F 94% 29.96 in 5.0 mi Calm Calm - 0.01 in Rain Light Rain
12:35 AM 62.6 °F 60.8 °F 94% 29.95 in 8.0 mi Calm Calm - 0.01 in   Light Drizzle
12:55 AM 60.8 °F 60.8 °F 100% 29.95 in 8.0 mi SE 5.8 mph - 0.02 in Rain Light Rain
1:15 AM 60.8 °F 60.8 °F 100% 29.95 in 10.0 mi Calm Calm - N/A   Light Drizzle
1:35 AM 60.8 °F 60.8 °F 100% 29.94 in 9.0 mi Calm Calm - N/A Rain Light Rain
1:55 AM 60.8 °F 60.8 °F 100% 29.93 in 7.0 mi SE 5.8 mph - N/A Rain Light Rain
2:15 AM 60.8 °F 60.8 °F 100% 29.93 in 4.0 mi SE 8.1 mph - 0.01 in Rain Light Rain
2:35 AM 62.6 °F 60.8 °F 94% 29.92 in 7.0 mi SE 8.1 mph - 0.02 in Rain Light Rain
2:55 AM 60.8 °F 60.8 °F 100% 29.91 in 10.0 mi Calm Calm - 0.02 in   Partly Cloudy
3:15 AM 60.8 °F 60.8 °F 100% 29.90 in 10.0 mi East 3.5 mph - N/A   Partly Cloudy
3:55 AM 60.8 °F 60.8 °F 100% 29.89 in 10.0 mi Calm Calm - N/A   Partly Cloudy
4:15 AM 60.8 °F 60.8 °F 100% 29.88 in 10.0 mi Calm Calm - N/A   Clear
4:35 AM 60.8 °F 59.0 °F 94% 29.88 in 10.0 mi Calm Calm - N/A   Mostly Cloudy
4:55 AM 60.8 °F 59.0 °F 94% 29.88 in 10.0 mi Calm Calm - N/A   Mostly Cloudy
5:15 AM 60.8 °F 59.0 °F 94% 29.88 in 10.0 mi Calm Calm - N/A   Mostly Cloudy
5:35 AM 60.8 °F 57.2 °F 88% 29.88 in 10.0 mi Calm Calm - N/A   Mostly Cloudy
5:55 AM 60.8 °F 59.0 °F 94% 29.88 in 10.0 mi Calm Calm - N/A   Mostly Cloudy
6:15 AM 60.8 °F 57.2 °F 88% 29.88 in 10.0 mi Calm Calm - N/A   Scattered Clouds
6:35 AM 60.8 °F 60.8 °F 100% 29.89 in 9.0 mi Calm Calm - N/A Rain Light Rain
6:55 AM 59.0 °F 59.0 °F 100% 29.89 in 10.0 mi Calm Calm - N/A   Scattered Clouds
7:15 AM 60.8 °F 59.0 °F 94% 29.89 in 10.0 mi Calm Calm - N/A   Partly Cloudy
7:35 AM 57.2 °F 53.6 °F 88% 29.93 in 6.0 mi West 16.1 mph 25.3 mph 0.01 in Rain Light Rain
7:55 AM 57.2 °F 53.6 °F 88% 29.94 in 10.0 mi West 11.5 mph - 0.01 in   Mostly Cloudy
8:15 AM 57.2 °F 53.6 °F 88% 29.95 in 10.0 mi Calm Calm - N/A   Mostly Cloudy
8:35 AM 55.4 °F 55.4 °F 100% 29.95 in 9.0 mi Calm Calm - N/A   Overcast
8:55 AM 55.4 °F 55.4 °F 100% 29.96 in 8.0 mi Calm Calm - N/A Rain Light Rain
9:15 AM 55.4 °F 55.4 °F 100% 29.96 in 8.0 mi South 8.1 mph - N/A   Overcast
9:35 AM 55.4 °F 55.4 °F 100% 29.95 in 10.0 mi South 3.5 mph - N/A   Scattered Clouds
10:15 AM 55.4 °F 55.4 °F 100% 29.95 in 10.0 mi Calm Calm - N/A   Partly Cloudy
10:35 AM 57.2 °F 55.4 °F 94% 29.95 in 10.0 mi Calm Calm - N/A   Mostly Cloudy
10:55 AM 57.2 °F 55.4 °F 94% 29.95 in 10.0 mi Calm Calm - N/A   Mostly Cloudy
11:15 AM 57.2 °F 55.4 °F 94% 29.95 in 10.0 mi Calm Calm - N/A   Mostly Cloudy
11:35 AM 57.2 °F 55.4 °F 94% 29.95 in 10.0 mi South 6.9 mph - N/A   Overcast
11:55 AM 59.0 °F 53.6 °F 82% 29.94 in 10.0 mi South 9.2 mph - N/A   Overcast
12:15 PM 57.2 °F 51.8 °F 82% 29.93 in 10.0 mi South 11.5 mph - N/A   Overcast
12:35 PM 57.2 °F 51.8 °F 82% 29.92 in 10.0 mi South 9.2 mph - N/A   Overcast
12:55 PM 57.2 °F 51.8 °F 82% 29.92 in 10.0 mi South 6.9 mph - N/A   Mostly Cloudy
1:15 PM 57.2 °F 51.8 °F 82% 29.91 in 10.0 mi South 4.6 mph - N/A   Partly Cloudy
1:35 PM 57.2 °F 51.8 °F 82% 29.90 in 7.0 mi SSE 6.9 mph - 0.01 in Rain Light Rain
1:55 PM 57.2 °F 53.6 °F 88% 29.89 in 10.0 mi ESE 6.9 mph - 0.02 in   Light Drizzle
2:15 PM 57.2 °F 53.6 °F 88% 29.87 in 7.0 mi ENE 3.5 mph - N/A Rain Rain
2:35 PM 57.2 °F 53.6 °F 88% 29.85 in 10.0 mi Calm Calm - N/A   Partly Cloudy
2:55 PM 60.8 °F 53.6 °F 77% 29.84 in 10.0 mi ESE 3.5 mph - N/A   Clear
3:15 PM 60.8 °F 51.8 °F 72% 29.84 in 10.0 mi East 5.8 mph - N/A   Clear
3:35 PM 62.6 °F 53.6 °F 72% 29.83 in 10.0 mi East 5.8 mph - N/A   Clear
3:55 PM 64.4 °F 53.6 °F 68% 29.82 in 10.0 mi ENE 5.8 mph - N/A   Clear
4:15 PM 64.4 °F 53.6 °F 68% 29.82 in 10.0 mi Calm Calm - N/A   Clear
4:35 PM 64.4 °F 51.8 °F 64% 29.83 in 10.0 mi Calm Calm - N/A   Clear
4:55 PM 64.4 °F 53.6 °F 68% 29.82 in 10.0 mi North 4.6 mph - N/A   Clear
5:15 PM 64.4 °F 53.6 °F 68% 29.82 in 10.0 mi North 4.6 mph - N/A   Clear
5:35 PM 62.6 °F 53.6 °F 72% 29.84 in 10.0 mi Calm Calm - N/A   Clear
5:55 PM 62.6 °F 51.8 °F 68% 29.85 in 10.0 mi WSW 3.5 mph - N/A   Scattered Clouds
6:15 PM 59.0 °F 50.0 °F 72% 29.87 in 3.0 mi SSW 20.7 mph 27.6 mph N/A   Haze
6:35 PM 53.6 °F 51.8 °F 94% 29.89 in 5.0 mi South 13.8 mph - 0.02 in Rain Light Rain
6:55 PM 51.8 °F 51.8 °F 100% 29.87 in 2.5 mi SSE 10.4 mph - 0.06 in Rain Rain
7:15 PM 53.6 °F 53.6 °F 100% 29.86 in 3.0 mi SE 15.0 mph 19.6 mph 0.04 in Rain Light Rain
7:35 PM 53.6 °F 51.8 °F 94% 29.84 in 8.0 mi East 9.2 mph - 0.05 in Rain Light Rain
7:55 PM 53.6 °F 51.8 °F 94% 29.83 in 10.0 mi SW 13.8 mph 20.7 mph 0.05 in   Partly Cloudy
8:15 PM 53.6 °F 51.8 °F 94% 29.84 in 10.0 mi SW 4.6 mph - N/A   Clear
8:35 PM 53.6 °F 51.8 °F 94% 29.84 in 10.0 mi Calm Calm - N/A   Clear
8:55 PM 51.8 °F 51.8 °F 100% 29.84 in 10.0 mi Calm Calm - N/A   Clear
9:15 PM 51.8 °F 51.8 °F 100% 29.85 in 10.0 mi NW 4.6 mph - N/A   Clear
9:35 PM 51.8 °F 51.8 °F 100% 29.86 in 10.0 mi Calm Calm - N/A   Clear
9:55 PM 51.8 °F 51.8 °F 100% 29.85 in 10.0 mi NW 3.5 mph - N/A   Clear
10:15 PM 51.8 °F 51.8 °F 100% 29.85 in 10.0 mi Calm Calm - N/A   Clear
10:35 PM 51.8 °F 51.8 °F 100% 29.86 in 10.0 mi Calm Calm - N/A   Clear
10:55 PM 51.8 °F 51.8 °F 100% 29.86 in 10.0 mi Calm Calm - N/A   Clear
11:15 PM 51.8 °F 51.8 °F 100% 29.86 in 10.0 mi Calm Calm - N/A   Mostly Cloudy
11:35 PM 51.8 °F 51.8 °F 100% 29.86 in 10.0 mi East 3.5 mph - N/A   Mostly Cloudy
11:55 PM 51.8 °F 51.8 °F 100% 29.85 in 10.0 mi East 3.5 mph - N/A   Mostly Cloudy